Year,Month,Day,Hour,Minute,Value (Times are PST for temperature in C)
2021,01,18,09,27,3.20
2021,01,18,09,28,3.20
2021,01,18,09,29,3.20
2021,01,18,09,30,3.20
2021,01,18,09,31,3.10
2021,01,18,09,32,3.10
2021,01,18,09,33,3.20
2021,01,18,09,34,3.20
2021,01,18,09,35,3.30
2021,01,18,09,36,3.30
2021,01,18,09,37,3.30
2021,01,18,09,38,3.40
2021,01,18,09,39,3.40
2021,01,18,09,40,3.50
2021,01,18,09,41,3.60
2021,01,18,09,42,3.60
2021,01,18,09,43,3.60
2021,01,18,09,44,3.60
2021,01,18,09,45,3.70
2021,01,18,09,46,3.70
2021,01,18,09,47,3.80
2021,01,18,09,48,3.80
2021,01,18,09,49,3.90
2021,01,18,09,50,3.90
2021,01,18,09,51,4.00
2021,01,18,09,52,4.00
2021,01,18,09,53,4.00
2021,01,18,09,54,4.00
2021,01,18,09,55,4.10
2021,01,18,09,56,4.10
2021,01,18,09,57,4.20
2021,01,18,09,58,4.20
2021,01,18,09,59,4.30
2021,01,18,10,00,4.40
2021,01,18,10,01,4.50
2021,01,18,10,02,4.50
2021,01,18,10,03,4.60
2021,01,18,10,04,4.60
2021,01,18,10,05,4.70
2021,01,18,10,06,4.80
2021,01,18,10,07,4.80
2021,01,18,10,08,4.90
2021,01,18,10,09,5.00
2021,01,18,10,10,5.10
2021,01,18,10,11,5.10
2021,01,18,10,12,5.00
2021,01,18,10,13,5.00
2021,01,18,10,14,5.10
2021,01,18,10,15,5.10
2021,01,18,10,16,4.90
2021,01,18,10,17,4.80
2021,01,18,10,18,4.80
2021,01,18,10,19,4.70
2021,01,18,10,20,4.60
2021,01,18,10,21,4.60
2021,01,18,10,22,4.60
2021,01,18,10,23,4.60
2021,01,18,10,24,4.60
2021,01,18,10,25,4.70
2021,01,18,10,26,4.80
2021,01,18,10,27,4.90
2021,01,18,10,28,4.90
2021,01,18,10,29,5.00
2021,01,18,10,30,5.10
2021,01,18,10,31,5.10
2021,01,18,10,32,5.20
2021,01,18,10,33,5.20
2021,01,18,10,34,5.30
2021,01,18,10,35,5.30
2021,01,18,10,36,5.40
2021,01,18,10,37,5.50
2021,01,18,10,38,5.60
2021,01,18,10,39,5.70
2021,01,18,10,40,5.80
2021,01,18,10,41,5.80
2021,01,18,10,42,5.80
2021,01,18,10,43,5.80
2021,01,18,10,44,5.80
2021,01,18,10,45,5.70
2021,01,18,10,46,5.80
2021,01,18,10,47,5.80
2021,01,18,10,48,5.80
2021,01,18,10,49,5.90
2021,01,18,10,50,6.00
2021,01,18,10,51,6.00
2021,01,18,10,52,6.10
2021,01,18,10,53,6.10
2021,01,18,10,54,6.10
2021,01,18,10,55,6.10
2021,01,18,10,56,6.10
2021,01,18,10,57,6.20
2021,01,18,10,58,6.20
2021,01,18,10,59,6.20
2021,01,18,11,00,6.30
2021,01,18,11,01,6.30
2021,01,18,11,02,6.30
2021,01,18,11,03,6.30
2021,01,18,11,04,6.40
2021,01,18,11,05,6.40
2021,01,18,11,06,6.40
2021,01,18,11,07,6.40
2021,01,18,11,08,6.40
2021,01,18,11,09,6.50
2021,01,18,11,10,6.50
2021,01,18,11,11,6.50
2021,01,18,11,12,6.40
2021,01,18,11,13,6.40
2021,01,18,11,14,6.40
2021,01,18,11,15,6.50
2021,01,18,11,16,6.50
2021,01,18,11,17,6.60
2021,01,18,11,18,6.60
2021,01,18,11,19,6.60
2021,01,18,11,20,6.70
2021,01,18,11,21,6.70
2021,01,18,11,22,6.80
2021,01,18,11,23,6.90
2021,01,18,11,24,7.00
2021,01,18,11,25,7.10
2021,01,18,11,26,7.10
2021,01,18,11,27,7.20
2021,01,18,11,28,7.20
2021,01,18,11,29,7.30
2021,01,18,11,30,7.30
2021,01,18,11,31,7.30
2021,01,18,11,32,7.20
2021,01,18,11,33,7.20
2021,01,18,11,34,7.20
2021,01,18,11,35,7.30
2021,01,18,11,36,7.30
2021,01,18,11,37,7.40
2021,01,18,11,38,7.50
2021,01,18,11,39,7.50
2021,01,18,11,40,7.60
2021,01,18,11,41,7.60
2021,01,18,11,42,7.70
2021,01,18,11,43,7.70
2021,01,18,11,44,7.70
2021,01,18,11,45,7.70
2021,01,18,11,46,7.80
2021,01,18,11,47,7.80
2021,01,18,11,48,7.80
2021,01,18,11,49,7.80
2021,01,18,11,50,7.80
2021,01,18,11,51,7.90
2021,01,18,11,52,7.90
2021,01,18,11,53,7.80
2021,01,18,11,54,7.80
2021,01,18,11,55,7.70
2021,01,18,11,56,7.70
2021,01,18,11,57,7.70
2021,01,18,11,58,7.70
2021,01,18,11,59,7.70
2021,01,18,12,00,7.70
2021,01,18,12,01,7.70
2021,01,18,12,02,7.80
2021,01,18,12,03,7.80
2021,01,18,12,04,7.80
2021,01,18,12,05,7.80
2021,01,18,12,06,7.80
2021,01,18,12,07,7.80
2021,01,18,12,08,7.80
2021,01,18,12,09,7.80
2021,01,18,12,10,7.80
2021,01,18,12,11,7.80
2021,01,18,12,12,7.80
2021,01,18,12,13,7.80
2021,01,18,12,14,7.80
2021,01,18,12,15,7.80
2021,01,18,12,16,7.90
2021,01,18,12,17,7.90
2021,01,18,12,18,7.90
2021,01,18,12,19,7.90
2021,01,18,12,20,7.90
2021,01,18,12,21,7.90
2021,01,18,12,22,7.90
2021,01,18,12,23,7.90
2021,01,18,12,24,7.90
2021,01,18,12,25,7.90
2021,01,18,12,26,7.90
2021,01,18,12,27,8.00
2021,01,18,12,28,8.00
2021,01,18,12,29,8.10
2021,01,18,12,30,8.10
2021,01,18,12,31,8.10
2021,01,18,12,32,8.10
2021,01,18,12,33,8.10
2021,01,18,12,34,8.20
2021,01,18,12,35,8.20
2021,01,18,12,36,8.20
2021,01,18,12,37,8.20
2021,01,18,12,38,8.20
2021,01,18,12,39,8.20
2021,01,18,12,40,8.30
2021,01,18,12,41,8.30
2021,01,18,12,42,8.30
2021,01,18,12,43,8.30
2021,01,18,12,44,8.30
2021,01,18,12,45,8.40
2021,01,18,12,46,8.40
2021,01,18,12,47,8.50
2021,01,18,12,48,8.50
2021,01,18,12,49,8.60
2021,01,18,12,50,8.70
2021,01,18,12,51,8.70
2021,01,18,12,52,8.70
2021,01,18,12,53,8.70
2021,01,18,12,54,8.70
2021,01,18,12,55,8.70
2021,01,18,12,56,8.70
2021,01,18,12,57,8.60
2021,01,18,12,58,8.60
2021,01,18,12,59,8.60
2021,01,18,13,00,8.60
2021,01,18,13,01,8.60
2021,01,18,13,02,8.50
2021,01,18,13,03,8.50
2021,01,18,13,04,8.40
2021,01,18,13,05,8.40
2021,01,18,13,06,8.40
2021,01,18,13,07,8.40
2021,01,18,13,08,8.30
2021,01,18,13,09,8.30
2021,01,18,13,10,8.30
2021,01,18,13,11,8.30
2021,01,18,13,12,8.20
2021,01,18,13,13,8.20
2021,01,18,13,14,8.10
2021,01,18,13,15,8.10
2021,01,18,13,16,8.10
2021,01,18,13,17,8.20
2021,01,18,13,18,8.20
2021,01,18,13,19,8.20
2021,01,18,13,20,8.20
2021,01,18,13,21,8.20
2021,01,18,13,22,8.30
2021,01,18,13,23,8.40
2021,01,18,13,24,8.40
2021,01,18,13,25,8.50
2021,01,18,13,26,8.60
2021,01,18,13,27,8.60
2021,01,18,13,28,8.60
2021,01,18,13,29,8.60
2021,01,18,13,30,8.60
2021,01,18,13,31,8.60
2021,01,18,13,32,8.70
2021,01,18,13,33,8.70
2021,01,18,13,34,8.80
2021,01,18,13,35,8.80
2021,01,18,13,36,8.80
2021,01,18,13,37,8.70
2021,01,18,13,38,8.70
2021,01,18,13,39,8.80
2021,01,18,13,40,8.70
2021,01,18,13,41,8.70
2021,01,18,13,42,8.70
2021,01,18,13,43,8.70
2021,01,18,13,44,8.60
2021,01,18,13,45,8.50
2021,01,18,13,46,8.50
2021,01,18,13,47,8.50
2021,01,18,13,48,8.40
2021,01,18,13,49,8.50
2021,01,18,13,50,8.50
2021,01,18,13,51,8.50
2021,01,18,13,52,8.50
2021,01,18,13,53,8.50
2021,01,18,13,54,8.60
2021,01,18,13,55,8.60
2021,01,18,13,56,8.60
2021,01,18,13,57,8.60
2021,01,18,13,58,8.60
2021,01,18,13,59,8.60
2021,01,18,14,00,8.70
2021,01,18,14,01,8.70
2021,01,18,14,02,8.70
2021,01,18,14,03,8.70
2021,01,18,14,04,8.70
2021,01,18,14,05,8.70
2021,01,18,14,06,8.60
2021,01,18,14,07,8.60
2021,01,18,14,08,8.60
2021,01,18,14,09,8.60
2021,01,18,14,10,8.60
2021,01,18,14,11,8.60
2021,01,18,14,12,8.50
2021,01,18,14,13,8.50
2021,01,18,14,14,8.50
2021,01,18,14,15,8.50
2021,01,18,14,16,8.60
2021,01,18,14,17,8.60
2021,01,18,14,18,8.70
2021,01,18,14,19,8.70
2021,01,18,14,20,8.70
2021,01,18,14,21,8.60
2021,01,18,14,22,8.50
2021,01,18,14,23,8.40
2021,01,18,14,24,8.40
2021,01,18,14,25,8.30
2021,01,18,14,26,8.30
2021,01,18,14,27,8.30
2021,01,18,14,28,8.30
2021,01,18,14,29,8.30
2021,01,18,14,30,8.40
2021,01,18,14,31,8.40
2021,01,18,14,32,8.40
2021,01,18,14,33,8.30
2021,01,18,14,34,8.30
2021,01,18,14,35,8.30
2021,01,18,14,36,8.30
2021,01,18,14,37,8.30
2021,01,18,14,38,8.30
2021,01,18,14,39,8.30
2021,01,18,14,40,8.30
2021,01,18,14,41,8.30
2021,01,18,14,42,8.30
2021,01,18,14,43,8.40
2021,01,18,14,44,8.40
2021,01,18,14,45,8.40
2021,01,18,14,46,8.40
2021,01,18,14,47,8.40
2021,01,18,14,48,8.40
2021,01,18,14,49,8.40
2021,01,18,14,50,8.30
2021,01,18,14,51,8.30
2021,01,18,14,52,8.30
2021,01,18,14,53,8.30
2021,01,18,14,54,8.30
2021,01,18,14,55,8.30
2021,01,18,14,56,8.30
2021,01,18,14,57,8.30
2021,01,18,14,58,8.30
2021,01,18,14,59,8.20
2021,01,18,15,00,8.20
2021,01,18,15,01,8.20
2021,01,18,15,02,8.20
2021,01,18,15,03,8.20
2021,01,18,15,04,8.20
2021,01,18,15,05,8.20
2021,01,18,15,06,8.20
2021,01,18,15,07,8.20
2021,01,18,15,08,8.20
2021,01,18,15,09,8.20
2021,01,18,15,10,8.20
2021,01,18,15,11,8.20
2021,01,18,15,12,8.20
2021,01,18,15,13,8.20
2021,01,18,15,14,8.20
2021,01,18,15,15,8.20
2021,01,18,15,16,8.30
2021,01,18,15,17,8.20
2021,01,18,15,18,8.30
2021,01,18,15,19,8.20
2021,01,18,15,20,8.20
2021,01,18,15,21,8.20
2021,01,18,15,22,8.20
2021,01,18,15,23,8.30
2021,01,18,15,24,8.20
2021,01,18,15,25,8.20
2021,01,18,15,26,8.20
2021,01,18,15,27,8.20
2021,01,18,15,28,8.20
2021,01,18,15,29,8.20
2021,01,18,15,30,8.10
2021,01,18,15,31,8.10
2021,01,18,15,32,8.10
2021,01,18,15,33,8.10
2021,01,18,15,34,8.00
2021,01,18,15,35,8.00
2021,01,18,15,36,8.00
2021,01,18,15,37,8.00
2021,01,18,15,38,8.00
2021,01,18,15,39,8.00
2021,01,18,15,40,8.00
2021,01,18,15,41,8.00
2021,01,18,15,42,8.00
2021,01,18,15,43,8.00
2021,01,18,15,44,8.00
2021,01,18,15,45,8.00
2021,01,18,15,46,8.00
2021,01,18,15,47,8.00
2021,01,18,15,48,8.00
2021,01,18,15,49,8.00
2021,01,18,15,50,8.00
2021,01,18,15,51,8.00
2021,01,18,15,52,8.00
2021,01,18,15,53,8.00
2021,01,18,15,54,8.00
2021,01,18,15,55,8.00
2021,01,18,15,56,8.00
2021,01,18,15,57,8.00
2021,01,18,15,58,8.00
2021,01,18,15,59,8.00
2021,01,18,16,00,7.90
2021,01,18,16,01,7.90
2021,01,18,16,02,7.90
2021,01,18,16,03,7.80
2021,01,18,16,04,7.80
2021,01,18,16,05,7.80
2021,01,18,16,06,7.80
2021,01,18,16,07,7.80
2021,01,18,16,08,7.80
2021,01,18,16,09,7.80
2021,01,18,16,10,7.80
2021,01,18,16,11,7.80
2021,01,18,16,12,7.80
2021,01,18,16,13,7.80
2021,01,18,16,14,7.70
2021,01,18,16,15,7.70
2021,01,18,16,16,7.70
2021,01,18,16,17,7.70
2021,01,18,16,18,7.70
2021,01,18,16,19,7.70
2021,01,18,16,20,7.70
2021,01,18,16,21,7.70
2021,01,18,16,22,7.70
2021,01,18,16,23,7.70
2021,01,18,16,24,7.60
2021,01,18,16,25,7.60
2021,01,18,16,26,7.60
2021,01,18,16,27,7.60
2021,01,18,16,28,7.60
2021,01,18,16,29,7.60
2021,01,18,16,30,7.50
2021,01,18,16,31,7.50
2021,01,18,16,32,7.40
2021,01,18,16,33,7.40
2021,01,18,16,34,7.40
2021,01,18,16,35,7.30
2021,01,18,16,36,7.30
2021,01,18,16,37,7.30
2021,01,18,16,38,7.20
2021,01,18,16,39,7.20
2021,01,18,16,40,7.20
2021,01,18,16,41,7.10
2021,01,18,16,42,7.10
2021,01,18,16,43,7.10
2021,01,18,16,44,7.10
2021,01,18,16,45,7.10
2021,01,18,16,46,7.00
2021,01,18,16,47,7.00
2021,01,18,16,48,7.00
2021,01,18,16,49,7.00
2021,01,18,16,50,7.00
2021,01,18,16,51,7.00
2021,01,18,16,52,7.00
2021,01,18,16,53,7.00
2021,01,18,16,54,7.00
2021,01,18,16,55,7.00
2021,01,18,16,56,7.00
2021,01,18,16,57,7.00
2021,01,18,16,58,7.00
